Location: Berlin
(42.3812°N, 71.6370°W)
Time: 23:17:00
(UTC+00:00)

Lacrosse 4 Rocket - Pass Details

Date: 15 November 2025
Orbit: 513 x 567 km, 68.0° (Epoch: 09 December)

Event Time Altitude Azimuth Distance (km) Brightness Sun altitude
Exits shadow 10:43:51 - 341° (NNW) 2,720 4.5 -10.2°
Rises 10:43:57 0° 342° (NNW) 2,682 4.5 -10.1°
Reaches altitude 10° 10:46:30 10° 357° (N) 1,777 3.7 -9.7°
Maximum altitude 10:49:43 23° 51° (NE) 1,131 3.3 -9.1°
Drops below altitude 10° 10:52:54 10° 106° (ESE) 1,747 5.6 -8.6°
Sets 10:55:22 0° 121° (ESE) 2,624 6.7 -8.1°
